Afton, WI

6:04 PM CST on February 06, 2016 (GMT -0600)
Rock County

Weather History for KJVL - October, 2013

Change the Weather History Date:

Sunday, October 13, 2013

  Actual Average (KRFD) Record (KRFD)
Temperature  
Mean Temperature 50 °F 53 °F  
Max Temperature 64 °F 64 °F 87 °F (1975)
Min Temperature 37 °F 41 °F 22 °F (1988)
Degree Days  
Heating Degree Days 14 13  
Month to date heating degree days 139  
Since 1 July heating degree days 270  
Cooling Degree Days 0 0  
Month to date cooling degree days 8  
Year to date cooling degree days 819  
Moisture  
Dew Point 36 °F    
Average Humidity 71    
Maximum Humidity 93    
Minimum Humidity 27    
Precipitation  
Precipitation 0.00 in 0.08 in 2.56 in (1960)
Month to date precipitation 1.15  
Year to date precipitation 30.16  
Snow  
Snow 0.00 in 0.00 in T in (1986)
Month to date snowfall 0.0  
Since 1 July snowfall 0.0  
Since 1 September snowfall 0.0  
Snow Depth -    
Sea Level Pressure  
Sea Level Pressure 30.31 in    
Wind  
Wind Speed 1 mph (NNW)    
Max Wind Speed 12 mph    
Max Gust Speed 23 mph    
Visibility 10 miles    
Events      
T = Trace of Precipitation, MM = Missing Value Source: NWS Daily Summary

Daily Weather History Graph

Daily Weather History Graph

Search for Another Location

Airport or City:

Trip Planner

Search our weather history database for the weather conditions in past years. The results will help you decide how hot, cold, wet, or windy it might be!

Date:

Astronomy

Oct. 13, 2013 Rise Set
Actual Time 7:07 AM CDT 6:16 PM CDT
Civil Twilight 6:38 AM CDT 6:45 PM CDT
Nautical Twilight 6:06 AM CDT 7:17 PM CDT
Astronomical Twilight 5:33 AM CDT 7:50 PM CDT
Moon 3:14 PM CDT (10/13) 1:09 AM CDT (10/13)
Length of Visible Light 12h 06m
Length of Day
11h 09m
Waxing Gibbous, 69% of the Moon is Illuminated
Oct 13
Waxing Gibbous
Oct 18
Full
Oct 26
Last Quarter
Nov 3
New
Nov 9
First Quarter

Hourly Weather History & Observations

Time (CDT) Temp. Windchill Dew Point Humidity Pressure Visibility Wind Dir Wind Speed Gust Speed Precip Events Conditions
12:15 AM 44.6 °F - 37.4 °F 76% 30.17 in 10.0 mi Calm Calm - N/A   Clear
12:35 AM 42.8 °F - 37.4 °F 81% 30.18 in 10.0 mi Calm Calm - N/A   Clear
12:55 AM 44.6 °F - 37.4 °F 76% 30.19 in 10.0 mi Calm Calm - N/A   Clear
1:15 AM 41.0 °F - 37.4 °F 87% 30.20 in 10.0 mi Calm Calm - N/A   Clear
1:35 AM 41.0 °F 39.0 °F 35.6 °F 81% 30.20 in 10.0 mi SSE 3.5 mph - N/A   Clear
1:55 AM 42.8 °F - 37.4 °F 81% 30.21 in 10.0 mi Calm Calm - N/A   Clear
2:15 AM 41.0 °F - 37.4 °F 87% 30.21 in 10.0 mi Calm Calm - N/A   Clear
2:35 AM 41.0 °F - 35.6 °F 81% 30.22 in 10.0 mi Calm Calm - N/A   Clear
2:55 AM 42.8 °F - 37.4 °F 81% 30.23 in 10.0 mi Calm Calm - N/A   Clear
3:15 AM 41.0 °F - 35.6 °F 81% 30.23 in 10.0 mi Calm Calm - N/A   Clear
3:35 AM 41.0 °F - 37.4 °F 87% 30.24 in 10.0 mi Calm Calm - N/A   Clear
3:55 AM 39.2 °F - 35.6 °F 87% 30.26 in 10.0 mi Calm Calm - N/A   Clear
4:15 AM 37.4 °F - 35.6 °F 93% 30.26 in 10.0 mi Calm Calm - N/A   Clear
4:35 AM 37.4 °F - 35.6 °F 93% 30.27 in 4.0 mi Calm Calm - N/A   Clear
4:55 AM 41.0 °F - 37.4 °F 87% 30.27 in 10.0 mi Calm Calm - N/A   Clear
5:15 AM 41.0 °F - 37.4 °F 87% 30.28 in 10.0 mi Calm Calm - N/A   Clear
5:35 AM 39.2 °F - 35.6 °F 87% 30.29 in 10.0 mi Calm Calm - N/A   Clear
5:45 AM 39.2 °F - 35.6 °F 87% 30.30 in 10.0 mi Calm Calm - N/A   Clear
6:45 AM 39.2 °F - 35.6 °F 87% 30.32 in 10.0 mi Calm Calm - N/A   Clear
7:45 AM 39.2 °F - 35.6 °F 87% 30.34 in 10.0 mi Calm Calm - N/A   Clear
8:45 AM 46.4 °F - 41.0 °F 81% 30.36 in 10.0 mi Calm Calm - N/A   Clear
9:45 AM 53.6 °F - 39.2 °F 58% 30.38 in 10.0 mi Calm Calm - N/A   Clear
10:45 AM 57.2 °F - 39.2 °F 51% 30.38 in 10.0 mi NW 8.1 mph - N/A   Partly Cloudy
11:45 AM 60.8 °F - 35.6 °F 39% 30.38 in 10.0 mi WNW 6.9 mph - N/A   Clear
12:45 PM 60.8 °F - 30.2 °F 31% 30.38 in 10.0 mi NW 11.5 mph 17.3 mph N/A   Clear
1:45 PM 62.6 °F - 32.0 °F 32% 30.36 in 10.0 mi WNW 11.5 mph 23.0 mph N/A   Clear
2:45 PM 62.6 °F - 33.8 °F 34% 30.35 in 10.0 mi North 8.1 mph - N/A   Clear
3:45 PM 64.4 °F - 30.2 °F 28% 30.35 in - NW 11.5 mph 18.4 mph N/A   Clear
4:45 PM 62.6 °F - 28.4 °F 27% 30.35 in 10.0 mi North 6.9 mph - N/A   Clear
5:45 PM 59.0 °F - 30.2 °F 34% 30.36 in 10.0 mi North 4.6 mph - N/A   Clear
6:45 PM 55.4 °F - 32.0 °F 41% 30.37 in 10.0 mi Calm Calm - N/A   Clear
7:45 PM 46.4 °F 45.2 °F 35.6 °F 66% 30.38 in 10.0 mi North 3.5 mph - N/A   Clear
8:45 PM 44.6 °F - 37.4 °F 76% 30.38 in 10.0 mi Calm Calm - N/A   Clear
9:15 PM 46.4 °F - 35.6 °F 66% 30.38 in 10.0 mi Calm Calm - N/A   Clear
9:35 PM 44.6 °F - 35.6 °F 71% 30.38 in 10.0 mi Calm Calm - N/A   Clear
9:55 PM 44.6 °F - 35.6 °F 71% 30.39 in 10.0 mi Calm Calm - N/A   Clear
10:15 PM 42.8 °F - 35.6 °F 76% 30.40 in 10.0 mi Calm Calm - N/A   Clear
10:35 PM 42.8 °F - 35.6 °F 76% 30.40 in 10.0 mi Calm Calm - N/A   Clear
10:55 PM 41.0 °F - 37.4 °F 87% 30.40 in 10.0 mi Calm Calm - N/A   Clear
11:15 PM 39.2 °F - 35.6 °F 87% 30.40 in 10.0 mi Calm Calm - N/A   Clear
11:35 PM 41.0 °F - 35.6 °F 81% 30.40 in 10.0 mi Calm Calm - N/A   Clear
11:55 PM 41.0 °F - 35.6 °F 81% 30.40 in 10.0 mi Calm Calm - N/A   Clear